Location: Dittelbrunn
(50.0738°N, 10.2196°E)
Time: 14:58:38
(UTC+00:00)

USA 234 - Pass Details

Date: 18 September 2020
Orbit: 1102 x 1106 km, 123.0° (Epoch: 16 October)

Event Time Altitude Azimuth Distance (km) Brightness Sun altitude
Rises 20:16:05 0° 57° (ENE) 3,927 6.0 -26.1°
Enters shadow 20:16:06 - 57° (ENE) 3,923 6.0 -26.1°
Exits shadow 20:19:21 14° 59° (ENE) 2,671 5.1 -26.5°
Maximum altitude 20:25:09 83° 146° (SSE) 1,117 3.1 -27.3°
Drops below altitude 10° 20:31:43 10° 236° (SW) 2,960 5.6 -28.0°
Sets 20:34:11 0° 237° (WSW) 3,916 6.3 -28.3°
